This is the latest recevied weather packets stored in our database for station/object EA7URS-13. If no packets are shown the sender has not sent any weather packets the latest 10 day(s).
| Time | Temp. | Humidity | Pressure | Rain* | Wind** | Luminosity | Snow |
|---|---|---|---|---|---|---|---|
| 1787925421 | 28.33° C | 28% | 1012.5 hPa | 0 mm | - | 612 W/m² | - |
| 1787925120 | 28.33° C | 29% | 1012.6 hPa | 0 mm | - | 628 W/m² | - |
| 1787924818 | 28.33° C | 29% | 1012.6 hPa | 0 mm | - | 628 W/m² | - |
| 1787924518 | 28.33° C | 28% | 1012.8 hPa | 0 mm | - | 647 W/m² | - |
| 1787924217 | 28.33° C | 28% | 1012.8 hPa | 0 mm | - | 647 W/m² | - |
| 1787923915 | 28.33° C | 29% | 1012.6 hPa | 0 mm | - | 660 W/m² | - |
| 1787923614 | 28.33° C | 29% | 1012.6 hPa | 0 mm | - | 660 W/m² | - |
| 1787923313 | 27.78° C | 29% | 1012.9 hPa | 0 mm | - | 667 W/m² | - |
| 1787923012 | 27.78° C | 29% | 1012.9 hPa | 0 mm | - | 667 W/m² | - |
| 1787922711 | 27.78° C | 30% | 1012.8 hPa | 0 mm | - | 680 W/m² | - |
| 1787922410 | 27.78° C | 30% | 1012.8 hPa | 0 mm | - | 680 W/m² | - |
| 1787922109 | 27.78° C | 31% | 1013.2 hPa | 0 mm | - | 694 W/m² | - |
| 1787921808 | 27.78° C | 31% | 1013.2 hPa | 0 mm | - | 694 W/m² | - |
| 1787921507 | 27.22° C | 32% | 1012.9 hPa | 0 mm | - | 701 W/m² | - |
| 1787921206 | 27.22° C | 32% | 1012.9 hPa | 0 mm | - | 701 W/m² | - |
| 1787920904 | 26.67° C | 31% | 1013 hPa | 0 mm | - | 705 W/m² | - |
| 1787920603 | 26.67° C | 31% | 1013 hPa | 0 mm | - | 705 W/m² | - |
| 1787920302 | 27.22° C | 32% | 1013.2 hPa | 0 mm | - | 707 W/m² | - |
| 1787920001 | 27.22° C | 32% | 1013.2 hPa | 0 mm | - | 707 W/m² | - |
| 1787919700 | 26.67° C | 33% | 1013.2 hPa | 0 mm | - | 707 W/m² | - |
| 1787919399 | 26.67° C | 33% | 1013.2 hPa | 0 mm | - | 707 W/m² | - |
| 1787919098 | 26.11° C | 36% | 1013.4 hPa | 0 mm | - | 707 W/m² | - |
| 1787918797 | 26.11° C | 36% | 1013.4 hPa | 0 mm | - | 707 W/m² | - |
| 1787918495 | 26.67° C | 33% | 1013.6 hPa | 0 mm | - | 703 W/m² | - |
| 1787918194 | 26.67° C | 33% | 1013.6 hPa | 0 mm | - | 703 W/m² | - |
* Rain latest hour (hover to see other rain measurements)
** Current wind speed in m/s (hover to see current wind gust speed)